Regional Weather Roundup
Issued by NWS Pendleton, OR

Home | Current Version | Previous Version | Text Only | Print | Product List | Glossary On
Versions: 1 2 3 4 5 6 7 8 9 10 11 12 13 14 15 16 17 18 19 20 21 22 23 24 25 26 27 28 29 30 31 32 33 34 35 36 37 38 39 40 41 42 43 44 45 46 47 48 49 50
000
ASUS46 KPDT 230425
RWRPDT
PENDLETON REGIONAL WEATHER ROUNDUP
NATIONAL WEATHER SERVICE PENDLETON OREGON
900 PM PDT THU JUN 22 2017

NOTE: FAIR INDICATES FEW OR NO CLOUDS BELOW 12,000 FEET WITH NO
SIGNIFICANT WEATHER AND/OR OBSTRUCTIONS TO VISIBILITY.

# INDICATES UNOFFICIAL STATION AND DATA

WAZ520-230510-
EAST SLOPES OF WASHINGTON CASCADES

CITY            SKY/WX      TMP DP  RH  WIND    PRES   REMARKS
#BULLFROG       N/A         68  39  35  W9      N/A
#CLE ELUM HS    N/A         75  36  24  W7      30.10
#EASTON DOT     N/A         61  43  51  N2      N/A
#ELK HTS DOT    N/A         65  65  100 S1      N/A
#GLENWOOD       N/A         63  50  62  CALM    30.11S
#NILE           N/A         63  40  43  CALM    29.42R
#TEANAWAY 4NE   N/A         65  44  46  N2      N/A
#TROUT LAKE 1E  N/A         59  48  67  CALM    30.19R
$$

WAZ521-230510-
SIMCOE HIGHLANDS

CITY            SKY/WX      TMP DP  RH  WIND    PRES   REMARKS
#BICKLETON HS   N/A         59  41  51  W3      29.87F
#SATUS PASS DOT N/A         61  33  35  N1      N/A
#GOLDENDALE 1NE N/A         67  25  20  NE3     N/A
#GOLDENDALE 4W  N/A         70  15  12  E6      30.19S
#GOODNOE HILLS  N/A         71  36  28  N2      N/A
#LYLE 6NE       N/A         80  40  24  SW2     30.07
#PITT 4SE       N/A         76  40  27  CALM    30.14
$$

WAZ026-230510-
KITTITAS VALLEY

CITY            SKY/WX      TMP DP  RH  WIND    PRES   REMARKS
ELLENSBURG AP   CLEAR       70  39  32  N14     30.16S
#ELLENSBURG CWU N/A         82  36  19  S3      30.05
#MANASTASH RDG  N/A         69  69  100 W2      N/A
#ROCKY CYN DOT  N/A         65  37  35  W7      N/A
#RYEGRASS DOT   N/A         66  34  30  SE6     N/A
$$

WAZ027-230510-
YAKIMA VALLEY

CITY            SKY/WX      TMP DP  RH  WIND    PRES   REMARKS
SUNNYSIDE AP    CLEAR       62  46  56  N7      30.15R
YAKIMA AIRPORT  CLEAR       73  44  35  CALM    30.15S
YAKIMA-VAGABOND CLEAR       72  35  26  S9      30.14R
#DONALD 2NE     N/A         72  13  10  NE2     29.00R
#MABTON         N/A         72  42  34  CALM    30.14R
#MOXEE 2E       N/A         71  N/A N/A E5      30.04R
#NACHES 2SW     N/A         72  49  44  CALM    30.17S
#OUTLOOK DOT    N/A         73  38  28  CALM    30.11S
#PARKER DOT     N/A         70  41  35  W2      30.14S
#I82 S UMTANUM RN/A         72  38  29  SE2     N/A
#UNION GAP DOT  N/A         75  36  24  S5      30.16F
#WILEY CITY 3W  N/A         65  43  45  CALM    30.14R
#ZILLAH DOT     N/A         70  43  38  E5      N/A
$$

WAZ028-230510-
LOWER COLUMBIA BASIN...WASHINGTON

CITY            SKY/WX      TMP DP  RH  WIND    PRES   REMARKS
PASCO           CLEAR       75  38  26  N3      30.13F
PROSSER AWOS    N/A         72  39  30  E3      30.17S
RICHLAND AWOS   CLEAR       71  38  30  CALM    30.13F
#PATERSON       N/A         79  41  26  S2      30.10
#PROSSER DOT    N/A         73  36  26  CALM    30.15S
#WEST PASCO     N/A         73  41  31  CALM    30.13F
$$

WAZ029-230510-
FOOTHILLS OF THE BLUES...WASHINGTON

CITY            SKY/WX      TMP DP  RH  WIND    PRES   REMARKS
WALLA WALLA AP  CLEAR       73  44  35  SE5     30.15F
#CLYDE 6NW      N/A         77  35  22  W6      30.11S
#DELANEY DOT    N/A         65  39  38  CALM    30.16S
#LOWDEN 2SE     N/A         67  51  56  CALM    30.10S
#PRESCOTT       N/A         62  46  56  CALM    30.11R
#WHITMAN COLLEGEN/A         73  46  38  S1      30.16S
#WAITSBURG 6SSE N/A         60  45  58  E3      30.16R
#WAITSBURG 8N   N/A         56  N/A N/A CALM    30.15S
#WALLA WALLA 5E N/A         58  49  72  NE5     N/A
#WALLA WALLA U  N/A         72  46  39  CALM    30.11S
#WHITMAN MISSIONN/A         79  47  32  W5      30.13S
$$

WAZ030-230510-
BLUE MOUNTAINS...WASHINGTON

CITY            SKY/WX      TMP DP  RH  WIND    PRES   REMARKS
#DIXIE 5SE      N/A         58  38  47  W5      30.14F
$$

ORZ009-041-WAZ024-230510-
COLUMBIA RIVER GORGE

CITY            SKY/WX      TMP DP  RH  WIND    PRES   REMARKS
HOOD RIVER AP   CLEAR       66  48  52  CALM    30.12R
THE DALLES AP   CLEAR       75  43  32  E6      30.09R
#ARLINGTON AIRPON/A         71  38  30  E7      30.12F
#CELILO DOT     N/A         80  41  25  NE3     N/A
#LYLE           N/A         78  41  27  E3      30.09R
#MARYHILL       N/A         73  34  24  N7      29.98S
#RUFUS DOT      N/A         80  N/A N/A E8      N/A

$$

ORZ510-230510-
NORTH CENTRAL OREGON

CITY            SKY/WX      TMP DP  RH  WIND    PRES   REMARKS
#CHENOWITH 1W   N/A         51  35  54  NW14    N/A
#COW CYN RST AREN/A         69  29  22  NE5     N/A
#DUFUR 9E       N/A         75  36  24  VRB3    30.16
#GRASS VALLEY 1SN/A         63  36  36  E1      30.19S
#MAUPIN SCHOOL  N/A         77  39  25  E1      30.16R
#MORO SCHOOL    N/A         65  42  43  CALM    30.25R
#SHANIKO 5WSW   N/A         67  29  24  N12     N/A
#SHANIKO 4NW    N/A         63  30  29  E9      30.23S
#WAPANITIA AIRPON/A         79  33  19  NE6     30.11
#WASCO DOT      N/A         70  38  31  E6      N/A
$$

ORZ511-230510-
CENTRAL OREGON

CITY            SKY/WX      TMP DP  RH  WIND    PRES   REMARKS
BEND AIRPORT    CLEAR       N/A N/A N/A N5      30.22R
MADRAS AIRPORT  CLEAR       64  32  30  N8      30.20R
PRINEVILLE AP   CLEAR       66  28  24  N5      30.21R
REDMOND AIRPORT CLEAR       69  25  19  N7      30.19R
#ASHWOOD SCHOOL N/A         77  30  18  N2      30.12
#BEND 1SW       N/A         64  31  29  CALM    N/A
#BEND-AWBREY    N/A         68  32  26  CALM    30.09R
#BEND-KIM LN    N/A         63  33  32  CALM    30.06R
#CULVER 8W      N/A         70  28  21  CALM    30.17R
#LAKE BILLY CHINN/A         72  N/A N/A N7      30.10R
#MADRAS 4S      N/A         72  16  12  NE3     N/A
#POWELL BUTTE   N/A         69  29  22  E5      30.14R
#PRINEVILLE 3N  N/A         67  32  27  N6      30.07R
#WARM SPRINGS   N/A         76  33  21  CALM    29.95R

$$


ORZ509-230510-
EAST SLOPES OF OREGON CASCADES

CITY            SKY/WX      TMP DP  RH  WIND    PRES   REMARKS
SISTERS AWOS    N/A         72  28  19  CALM    30.16R
#BLUE BOX PASS  N/A         62  N/A N/A NE5     N/A
#CAMP SHERMAN   N/A         63  33  32  CALM    30.16F
#LAVA BUTTE DOT N/A         65  25  22  N1      N/A
#SISTERS ODOT   N/A         36  -3  18  CALM    N/A
#SISTERS 3N     N/A         63  25  23  CALM    30.17R
#SUNRIVER       N/A         66  28  24  CALM    30.10R
#WANOGA BUTTE D N/A         58  18  21  NE8     N/A

$$

ORZ044-230510-
LOWER COLUMBIA BASIN...OREGON

CITY            SKY/WX      TMP DP  RH  WIND    PRES   REMARKS
HERMISTON       CLEAR       66  47  50  E3      30.13S HAZE
#BOARDMAN SCHOOLN/A         82  38  21  CALM    30.11S
#ECHO 8SW       N/A         65  45  48  CALM    30.14F
#I-84 EX 198 DOTN/A         72  44  37  NE6     N/A
#IONE SCHOOL    N/A         78  35  21  E8      30.12
$$

ORZ507-230510-
NORTHERN FOOTHILLS OF THE BLUES

CITY            SKY/WX      TMP DP  RH  WIND    PRES   REMARKS
PENDLETON AIRPT CLEAR       63  43  48  N9      30.16F
#HOLDMAN 5SE    N/A         64  39  40  SE1     30.15S
#HOLDMAN 6E     N/A         76  41  28  NW8     29.94S
#M-F GROVE ELEM N/A         68  41  37  CALM    30.12F
#M-FREEWATER 5SEN/A         63  46  54  CALM    30.15S
#PENDLETON DNTN N/A         69  36  30  CALM    30.13S
#PDT AQUATIC CTRN/A         66  38  36  N5      30.14S
#PILOT ROCK 1S  N/A         64  36  35  CALM    30.18S
#PILOT ROCK     N/A         67  39  36  CALM    30.18S
#TUTUILLA       N/A         65  47  52  CALM    30.20F
#UMAPINE 2E     N/A         61  50  67  CALM    30.11S
#WESTON SCHOOL  N/A         61  39  44  CALM    30.07R

$$

ORZ508-230510-
SOUTHERN FOOTHILLS OF THE BLUES

CITY            SKY/WX      TMP DP  RH  WIND    PRES   REMARKS
LEXINGTON       CLEAR       66  32  28  NE12    30.20S
#AJAX           N/A         65  27  24  S5      30.31S
#LEXINGTON 2SE  N/A         69  35  28  E1      30.14S
#MIKKALO        N/A         67  30  25  E5      30.27S
#RUGGS 5NE      N/A         62  31  31  E3      30.40F

$$

ORZ502-503-230510-
BLUE MOUNTAINS

CITY            SKY/WX      TMP DP  RH  WIND    PRES   REMARKS
MEACHAM         CLEAR       54  34  47  CALM    30.25S
#BATTLE MTN DOT N/A         57  34  42  N2      N/A
#CUTSFORTH PARK N/A          0  -78  1  CALM    30.02S
#GRANITE        N/A         53  25  33  S1      30.16S
#GREENHORN 9SW  N/A         55  37  51  CALM    30.19R
#HARDMAN 10S    N/A         54  36  50  CALM    30.23S
#HEPPNER 15SE   N/A         54  40  59  CALM    30.13F
#LADD CYN SMT   N/A         61  32  33  W7      N/A
#LADD CREEK ODOTN/A         65  36  34  S3      N/A
#LONG CREEK HS  N/A         61  38  42  CALM    N/A
#N POWDER DOT   N/A         61  37  41  NW3     N/A
#PIKES PEAK     N/A         62  35  36  CALM    27.99S
#SUMMERVILLE 5NWN/A         58  38  47  N2      30.17S
$$

ORZ505-230510-
JOHN DAY BASIN

CITY            SKY/WX      TMP DP  RH  WIND    PRES   REMARKS
JOHN DAY        CLEAR       65  32  29  CALM    30.21R
#JOHN DAY KJDY  N/A         69  N/A N/A S1      30.55F
#DAYVILLE SCHOOLN/A         71  27  19  W2      30.13R
#MITCHELL       N/A         68  35  29  CALM    30.33R
#MT. VERNON 5SE N/A         64  32  30  NW1     30.17R
#SPRAY SCHOOL   N/A         66  N/A N/A CALM    N/A
$$

ORZ506-230510-
OCHOCO AND JOHN DAY HIGHLANDS

CITY            SKY/WX      TMP DP  RH  WIND    PRES   REMARKS
#HORSE RIDGE DO N/A         68  22  17  NW10    N/A
#PAULINA ODOT   N/A         69  26  20  N6      N/A
#PRAIRIE CITY   N/A         63  31  30  CALM    30.32R
#SENECA         N/A         62  N/A N/A CALM    N/A
$$

ORZ049-230510-
GRANDE RONDE VALLEY

CITY            SKY/WX      TMP DP  RH  WIND    PRES   REMARKS
LA GRANDE       CLEAR       63  34  34  W10     30.19R
#COVE           N/A         59  45  60  NW1     30.20R
#ELGIN 3N       N/A         63  33  32  CALM    30.15S
#ELGIN 1E       N/A         65  37  35  CALM    N/A
#LA GRANDE-LEFFEN/A         64  37  37  NW6     30.17S
$$

ORZ050-230510-
WALLOWA COUNTY

CITY            SKY/WX      TMP DP  RH  WIND    PRES   REMARKS
JOSEPH AIRPORT  CLEAR       54  39  57  CALM    30.26R
#IMNAHA SCHOOL  N/A         63  37  38  CALM    30.16R
#IMNAHA 10S     N/A         60  37  42  N1      30.18R
#JOSEPH         N/A         56  39  53  CALM    30.22R
#JOSEPH 3N      N/A         57  34  42  CALM    30.25R
#JOSEPH 3W      N/A         50  42  74  W3      30.09R
#LOSTINE 3SE    N/A         56  37  49  CALM    30.28R
#MT HOWARD 8000 N/A         41  29  62  N5      30.38F
#WALLOWA LAKE   N/A         50  39  66  CALM    30.29R



$$



USA.gov is the U.S. government's official web portal to all federal, state and local government web resources and services.